Погода Дзерджинское

Погода Дзерджинское : погода сейчас, прогноз погоды и архив. Всё, что Вы хотите узнать о погоде Дзерджинское!

Хотите узнать прогноз погоды Дзерджинское? Тогда Вам сюда: Погода Дзерджинское

Поиск расширенной информации на нашем сайте:

Полезная информация: К косметологу первый раз хабаровск и еще.

Другие новости

Новости СМИ2

Главная страница сайта

Новости сайта

03.07.2017

Напоминаем, что на нашем специализированном сайте Метеоцентр.Азия вы можете получить высокодетализированные автоматические прогнозы погоды по пунктам России, СНГ и мира в авиационном формате (включающие направление и скорость ветра, видимость, явления погоды, количество и форму облачности, нижнюю и верхнюю границу облачности).

Рекомендуем: Ремонт husqvarna проблема с хускварной husqvarna.

Погода Дзерджинское - сегодня

Время (UTC), дата Ветер
(°,м/с) 
Видим.   Явления Облачность Т
(°С)
Тd
(°С)
f(%) Тe
(°С)
Pmin
(гПа)
dP
(гПа)
Po
(мм)
O2
(г/м3)
Тmin Tmax R s Состояние
почвы
03 18.07.17 090 (В) 20000 м    4/0 верхняя 
[Ci fib]
+22.4 +13.7 58 +29  1010.6  -1.2  742  273           
06 18.07.17 070 (В) 20000 м    9/9 600 м кучево-дожд. 
[Cb calv]
+24.1 +12.7 49 +29  1009.7  -0.8  741  272           
09 18.07.17 110 (В) 20000 м    9/4 600 м кучево-дожд., верхняя 
[Cb calv|Ci fib]
+24.3 +12.5 48 +29  1008.9  -0.7  741  272           
12 18.07.17 050 (СВ) 20000 м    9/5 600 м кучево-дожд., средняя, верхняя 
[Cb calv|Ac trans|Ci fib]
+22.8 +13 54 +29  1008.8  -0.2  740  273    +25       
15 18.07.17 190 (Ю) 20000 м    3/3 600 м кучево-дожд. 
[Cb calv]
+15.6 +12 79 +21  1010.7  1.4  741  280           
18 18.07.17 130 (ЮВ) 20000 м    3/3 600 м кучево-дожд. 
[Cb calv]
+11.5 +11.2 98 +16  1010.2  -0.9  741  284           
21 18.07.17 тихо ()   20000 м    3/3 600 м кучево-дожд. 
[Cb calv]
+10.4 +10.2 99 +12  1010.5  0.2  741  286           
00 19.07.17 110 (В) 20000 м    3/0 верхняя 
[Ci fib]
+15 +12.4 84 +21  1009.9  -0.2  741  281  +9.5        влажная 
03 19.07.17 140 (ЮВ) 20000 м    8/3 600 м кучево-дожд., верхняя 
[Cb calv|Ci fib]
+20.5 +13.5 64 +27  1009.2  -0.3  741  275           
06 19.07.17 220 (ЮЗ) 20000 м    8/5 600 м верхняя 
[Cu med, cong|Ci fib]
+22.3 +12.8 55 +28  1008  -1.1  740  273           
09 19.07.17 110 (В) 20000 м    8/8 600 м кучево-дожд. 
[Cb calv]
+22.4 +14.1 59 +30  1006.7  -1.2  739  272           
12 19.07.17 тихо ()   20000 м  гроза без осадков  8/6 600 м кучево-дожд., верхняя 
[Cb calv|Ci fib]
+20.8 +14.5 67 +29  1006.6  -0.2  739  274    +24.7       
15 19.07.17 310 (СЗ) 20000 м  {гроза, ливн. осадки}  8/8 600 м кучево-дожд. 
[Cb calv]
+16.3 +15.7 96 +28  1007.4  0.5  739  278           
18 19.07.17 тихо ()   20000 м  {гроза, ливн. осадки}  ясно 
+13 +12.8 99 +18  1007.3  -0.4  739  282           
21 19.07.17 тихо ()   4000 м  дымка  ясно 
+10.9 +10.7 99 +13  1007.5  739  284           
00 20.07.17 290 (З) 4000 м  дымка  ясно 
+12.7 +12.5 99 +19  1007.8  0.4  739  282  +10.5    0.0    влажная 
03 20.07.17 250 (З) 20000 м    10/10 600 м кучево-дожд. 
[Cb calv]
+18.3 +15.8 85 +30  1007.8  0.4  740  276           
06 20.07.17 360 (С) 20000 м  в посл. час дождь  10/5 600 м средняя 
[Frnb|As op]
+19.1 +16.2 83 +32  1007.3  -0.4  739  275           
09 20.07.17 120 (ЮВ) 20000 м    9/5 600 м кучево-дожд., средняя, верхняя 
[Cb calv|Ac trans|Ci fib]
+21.9 +14.5 63 +30  1007.3  0.2  739  273           
12 20.07.17 тихо ()   20000 м  в посл. час гроза  10/10 600 м кучево-дожд. 
[Cb cap]
+19.2 +15.1 77 +28  1007.9  0.3  740  275    +22.5     
15 20.07.17 тихо ()   20000 м    8/8 600 м кучево-дожд. 
[Cb calv]
+16.4 +15.6 95 +26  1009  0.4  740  278           
18 20.07.17 тихо ()   20000 м    8/8 600 м кучево-дожд. 
[Cb calv]
+14.6 +14.4 99 +23  1009.3  0.2  740  280           
21 20.07.17 тихо ()   20000 м    10/3 600 м средняя 
[Frnb|As op]
+13.5 +13.2 98 +20  1009.8  0.4  741  282           
00 21.07.17 тихо ()   20000 м  {дождь}  8/6 2000 м средняя, верхняя 
[Ac trans|Ci fib]
+15 +14.8 99 +24  1010.1  0.4  741  280  +13.4    0.0    влажная 
03 21.07.17 300 (СЗ) 20000 м    8/6 600 м кучево-дожд., верхняя 
[Cb calv|Ci fib]
+19 +16.3 84 +31  1010.7  0.9  742  276           
Время (UTC), дата Ветер
(°,м/с) 
Видим.   Явления Облачность Т
(°С)
Тd
(°С)
f(%) Тe
(°С)
Pmin
(гПа)
dP
(гПа)
Po
(мм)
O2
(г/м3)
Тmin Tmax R s Состояние
почвы

Для получения пояснительной информации подведите курсор к названию столбца.

ПОГОДА Дзерджинское - архив

Всё, что Вы хотите узнать о погоде Дзерджинское - удобно и подробно!

Выберите нужную дату (начиная с 1 января 2015* года) и нажмите кнопку "Найти".
Будут отображены архивные сводки погоды по пункту Дзерджинское, начиная с указанной даты.


Отображать данные в формате CSV (для использования в таблицах Excel)


Внимание! Наш архив погоды предназначен исключительно для личного некоммерческого использования в познавательных целях. Если Вам необходимы официальные справки о состоянии погоды (для производственных, юридических, коммерческих и т.п. целей), обращайтесь в органы Росгидромета.

*Примечание: данная дата относится к архиву по метеостанциям СССР (Россия, СНГ, Балтия).
Архив по метеостанциям Зарубежной Европы и Азии (кроме Китая) хранится 10 дней, по другим регионам земного шара (Китай, Африка, Америка, Австралия, Океания) - 1 день.

Дзерджинское - район местоположения метеостанции


Название, широта, долгота, высота метеостанции:
Дзерджинское 56.9°ш. 95.2°д. 188 м над ур. моря [Российская Федерация]

Дополнительная информация

В oтличие oт бoльшинства пoгoдных сайтoв мы публикуем пoдрoбную метеoинфoрмацию в детальнoм прoфессиoнальнoм фoрмате.

Характеристики температуры и влажнoсти вoздуха измеряются на высoте 2 м в тени вдали oт зданий и деревьев.
Скoрoсть ветра измеряется на высoте 10 м (на урoвне рoста челoвека скoрoсть ветра ниже в 1.5-2 раза). Если метеoстанция нахoдится в гoрoде или в лесу, тo скoрoсть ветра занижена на 2-4 м/с пo сравнению с oткрытым местoм. Скoрoсть ветра над акватoриями крупных рек и oзёр, а также на вершинах хoлмoв на 2-5 м/с выше, чем в oбычных услoвиях.
Атмoсфернoе давление в разных тoчках местнoсти мoжет значительнo oтличаться oт давления на метеoстанции, в зависимoсти oт услoвий рельефа (при пoдъёме на 10 м давление пoнижается примернo на 1 мм рт.ст.).